TAX977 EDDF-LPPR

Flight info

Callsign TAX977
Flight time N/A
Altitude 35000
Route SOBRA2L/18 SOBRA Y180 DIK UN857 TOLVU DCT RAPOR/N0442F370 DCT GIMER/N0437F350 DCT ESTOC UT300 PON UN872 GODIX/N0418F310 UN872 DIDAK/N0445F370 UN872 TERPO/N0439F350 UN872 ERIGA UZ218 FUJTI DCT ATLEN DCT INSID T326 ASPOR
Aircraft A320/M-SDE3FGHIRWY/LB1

Departure

Time 2026-05-04 09:17
Airport Frankfurt Main Airport (EDDF)

Arrival

Time N/A
Airport Francisco de Sá Carneiro Airport (LPPR)
Time Latitude Longitude Altitude Speed Heading
2026-05-04 08:35 50.03670 8.52432 375 ft 0 kts 340°
2026-05-04 09:01 50.03594 8.52491 380 ft 0 kts 250°
2026-05-04 09:10 50.03593 8.52488 379 ft 0 kts 251°
2026-05-04 09:11 50.03592 8.52480 379 ft 5 kts 251°
2026-05-04 09:11 50.03573 8.52396 377 ft 9 kts 250°
2026-05-04 09:11 50.03529 8.52309 376 ft 11 kts 206°
2026-05-04 09:11 50.03454 8.52298 375 ft 11 kts 178°
2026-05-04 09:12 50.03403 8.52355 376 ft 8 kts 109°
2026-05-04 09:12 50.03399 8.52410 378 ft 3 kts 92°
2026-05-04 09:14 50.03332 8.52594 376 ft 0 kts 178°
2026-05-04 09:15 50.03323 8.52594 375 ft 7 kts 178°
2026-05-04 09:17 49.94794 8.52960 3059 ft 226 kts 179°
2026-05-04 09:18 49.93237 8.53076 3762 ft 230 kts 179°
2026-05-04 09:18 49.91640 8.53193 3961 ft 229 kts 179°
2026-05-04 09:18 49.90052 8.53307 4006 ft 228 kts 180°
2026-05-04 09:18 49.88469 8.53416 3999 ft 227 kts 180°
2026-05-04 09:19 49.86879 8.53166 4192 ft 238 kts 197°
2026-05-04 09:19 49.85317 8.52306 5026 ft 239 kts 201°
2026-05-04 09:19 49.83706 8.51394 5669 ft 255 kts 201°
2026-05-04 09:19 49.82006 8.50442 6409 ft 264 kts 201°
2026-05-04 09:20 49.80262 8.49470 7260 ft 268 kts 201°
2026-05-04 09:20 49.78499 8.48465 8147 ft 271 kts 205°
2026-05-04 09:20 49.76972 8.46784 9008 ft 273 kts 229°
2026-05-04 09:20 49.76055 8.44218 9868 ft 278 kts 253°
2026-05-04 09:21 49.75947 8.41202 10536 ft 292 kts 277°
2026-05-04 09:21 49.76403 8.38011 10808 ft 315 kts 282°
2026-05-04 09:21 49.76953 8.34668 11378 ft 325 kts 282°
2026-05-04 09:21 49.77531 8.31250 12126 ft 330 kts 282°
2026-05-04 09:22 49.78115 8.27787 12898 ft 334 kts 282°
2026-05-04 09:22 49.78696 8.24293 13649 ft 337 kts 282°
2026-05-04 09:22 49.79270 8.20794 14319 ft 341 kts 281°
2026-05-04 09:22 49.79848 8.17216 14984 ft 344 kts 281°
2026-05-04 09:23 49.80425 8.13597 15629 ft 348 kts 281°
2026-05-04 09:23 49.81002 8.09940 16274 ft 351 kts 281°
2026-05-04 09:23 49.81582 8.06256 16932 ft 354 kts 281°
2026-05-04 09:23 49.82172 8.02528 17588 ft 357 kts 281°
2026-05-04 09:25 49.86369 7.75709 21515 ft 376 kts 280°
2026-05-04 09:25 49.86997 7.71711 22057 ft 379 kts 280°
2026-05-04 09:26 49.87626 7.67728 22562 ft 381 kts 280°
2026-05-04 09:26 49.88246 7.63762 23057 ft 384 kts 279°
2026-05-04 09:26 49.88871 7.59728 23564 ft 387 kts 279°
2026-05-04 09:26 49.89499 7.55654 23996 ft 389 kts 279°
2026-05-04 09:27 49.90129 7.51559 24429 ft 390 kts 279°
2026-05-04 09:27 49.90758 7.47448 24856 ft 392 kts 279°
2026-05-04 09:27 49.91386 7.43325 25268 ft 394 kts 279°
2026-05-04 09:27 49.92017 7.39178 25679 ft 396 kts 279°
2026-05-04 09:28 49.92652 7.35007 26106 ft 398 kts 279°
2026-05-04 09:28 49.93287 7.30826 26507 ft 399 kts 278°
2026-05-04 09:28 49.93926 7.26618 26936 ft 401 kts 278°
2026-05-04 09:28 49.94566 7.22398 27326 ft 403 kts 278°
2026-05-04 09:29 49.95209 7.18143 27715 ft 405 kts 278°
2026-05-04 09:29 49.95843 7.13928 28099 ft 407 kts 278°
2026-05-04 09:29 49.96490 7.09586 28482 ft 408 kts 278°
2026-05-04 09:29 49.97121 7.05333 28851 ft 410 kts 278°
2026-05-04 09:30 49.97760 7.01002 29220 ft 412 kts 277°
2026-05-04 09:30 49.98402 6.96649 29578 ft 414 kts 277°
2026-05-04 09:30 49.99005 6.92282 29969 ft 412 kts 274°
2026-05-04 09:30 49.99241 6.87868 30311 ft 408 kts 265°
2026-05-04 09:31 49.99142 6.83468 30609 ft 408 kts 263°
2026-05-04 09:31 49.99013 6.79051 30854 ft 410 kts 262°
2026-05-04 09:31 49.98877 6.74606 31124 ft 412 kts 262°
2026-05-04 09:31 49.98738 6.70194 31399 ft 413 kts 262°
2026-05-04 09:32 49.98598 6.65740 31759 ft 412 kts 262°
2026-05-04 09:32 49.98461 6.61305 32164 ft 411 kts 262°
2026-05-04 09:34 49.92237 6.34544 34627 ft 393 kts 243°
2026-05-04 09:34 49.91144 6.30655 34888 ft 394 kts 244°
2026-05-04 09:34 49.90043 6.26752 34993 ft 393 kts 243°
2026-05-04 09:34 49.88924 6.22920 35030 ft 388 kts 243°
2026-05-04 09:35 49.86746 6.15293 35032 ft 386 kts 243°
2026-05-04 09:35 49.83965 6.08259 35031 ft 382 kts 233°
2026-05-04 09:37 49.73584 5.84442 35032 ft 385 kts 246°
2026-05-04 09:37 49.72680 5.80536 35028 ft 386 kts 246°
2026-05-04 09:38 49.70873 5.72706 35027 ft 386 kts 246°
2026-05-04 09:38 49.69055 5.64941 35025 ft 386 kts 246°
2026-05-04 09:39 49.67222 5.57138 35021 ft 386 kts 246°
2026-05-04 09:39 49.65390 5.49329 35020 ft 386 kts 246°
2026-05-04 09:40 49.63549 5.41510 35020 ft 386 kts 246°
2026-05-04 09:40 49.61739 5.33754 35022 ft 387 kts 247°
2026-05-04 09:42 49.55665 5.01724 35013 ft 390 kts 251°
2026-05-04 09:43 49.54248 4.93659 35008 ft 390 kts 250°
2026-05-04 09:43 49.52804 4.85605 35034 ft 390 kts 250°
2026-05-04 09:44 49.51364 4.77624 35026 ft 390 kts 250°
2026-05-04 09:46 49.45517 4.45558 35030 ft 389 kts 250°
2026-05-04 09:46 49.44040 4.37549 35007 ft 390 kts 250°
2026-05-04 09:47 49.42548 4.29519 35000 ft 391 kts 249°
2026-05-04 09:49 49.36554 3.97412 34995 ft 391 kts 250°
2026-05-04 09:51 49.32471 3.68726 34986 ft 393 kts 253°
2026-05-04 09:51 49.31280 3.60609 34986 ft 393 kts 252°
2026-05-04 09:52 49.30076 3.52434 34996 ft 393 kts 252°
2026-05-04 09:52 49.28875 3.44246 34985 ft 394 kts 252°
2026-05-04 09:53 49.27671 3.36048 34983 ft 395 kts 252°
2026-05-04 09:53 49.26453 3.27840 34981 ft 395 kts 252°
2026-05-04 09:54 49.25230 3.19639 34978 ft 396 kts 252°
2026-05-04 09:54 49.24005 3.11418 34980 ft 396 kts 252°
2026-05-04 09:55 49.22782 3.03247 34985 ft 397 kts 252°
2026-05-04 09:55 49.21532 2.95017 34982 ft 398 kts 252°
2026-05-04 09:56 49.20273 2.86756 34981 ft 398 kts 252°
2026-05-04 09:56 49.19010 2.78508 34982 ft 399 kts 252°
2026-05-04 09:57 49.17747 2.70261 34982 ft 399 kts 252°
2026-05-04 09:57 49.16474 2.62012 35002 ft 399 kts 251°
2026-05-04 09:58 49.15188 2.53742 34987 ft 401 kts 251°
2026-05-04 09:58 49.13891 2.45444 34987 ft 402 kts 251°
2026-05-04 10:00 49.10361 2.11506 34993 ft 407 kts 256°
2026-05-04 10:02 49.03674 1.83840 34979 ft 397 kts 240°
2026-05-04 10:04 48.95541 1.57061 34977 ft 399 kts 240°
2026-05-04 10:04 48.93215 1.49440 34978 ft 400 kts 240°
2026-05-04 10:05 48.90867 1.41770 34975 ft 400 kts 240°
2026-05-04 10:05 48.88509 1.34102 34977 ft 400 kts 240°
2026-05-04 10:06 48.86147 1.26443 34983 ft 401 kts 240°
2026-05-04 10:06 48.83766 1.18752 34971 ft 403 kts 240°
2026-05-04 10:08 48.75362 0.91766 34961 ft 406 kts 240°
2026-05-04 10:08 48.72637 0.84363 34979 ft 403 kts 235°
2026-05-04 10:09 48.69695 0.77091 34962 ft 404 kts 235°
2026-05-04 10:09 48.66758 0.69840 34966 ft 405 kts 235°
2026-05-04 10:10 48.63806 0.62587 34957 ft 405 kts 235°
2026-05-04 10:10 48.60865 0.55378 34958 ft 405 kts 235°
2026-05-04 10:11 48.57910 0.48131 34960 ft 405 kts 235°
2026-05-04 10:11 48.54949 0.40890 34984 ft 404 kts 235°
2026-05-04 10:12 48.51986 0.33694 34985 ft 404 kts 235°
2026-05-04 10:12 48.49018 0.26511 34983 ft 403 kts 235°
2026-05-04 10:13 48.46057 0.19344 34978 ft 402 kts 235°
2026-05-04 10:13 48.43094 0.12200 34968 ft 402 kts 235°
2026-05-04 10:14 48.40127 0.05054 34970 ft 402 kts 235°
2026-05-04 10:16 48.27244 -0.22446 34951 ft 403 kts 230°
2026-05-04 10:16 48.23880 -0.29120 34953 ft 404 kts 230°
2026-05-04 10:17 48.20470 -0.35817 34954 ft 404 kts 230°
2026-05-04 10:19 48.06759 -0.62529 34961 ft 404 kts 230°
2026-05-04 10:19 48.03320 -0.69181 34968 ft 404 kts 230°
2026-05-04 10:20 47.99873 -0.75825 34961 ft 404 kts 230°
2026-05-04 10:20 47.97012 -0.81347 34972 ft 404 kts 230°
2026-05-04 10:21 47.93572 -0.87963 34995 ft 404 kts 230°
2026-05-04 10:21 47.89565 -0.95647 34985 ft 403 kts 230°
2026-05-04 10:22 47.84962 -1.04461 34987 ft 402 kts 230°
2026-05-04 10:23 47.81517 -1.11017 34981 ft 402 kts 230°
2026-05-04 10:25 47.67741 -1.37129 34975 ft 403 kts 229°
2026-05-04 10:25 47.64276 -1.43673 34972 ft 403 kts 229°
2026-05-04 10:26 47.60792 -1.50221 34976 ft 404 kts 229°
2026-05-04 10:26 47.57190 -1.56602 34977 ft 403 kts 226°
2026-05-04 10:27 47.53409 -1.62730 34978 ft 403 kts 225°
2026-05-04 10:27 47.49629 -1.68795 35006 ft 404 kts 225°
2026-05-04 10:28 47.45850 -1.74949 35000 ft 404 kts 226°
2026-05-04 10:28 47.42085 -1.81130 34996 ft 405 kts 226°
2026-05-04 10:29 47.38317 -1.87298 34995 ft 405 kts 226°
2026-05-04 10:29 47.34366 -1.93180 34997 ft 402 kts 216°
2026-05-04 10:30 47.29681 -1.97571 35000 ft 401 kts 210°
2026-05-04 10:30 47.24899 -2.01843 35000 ft 401 kts 210°
2026-05-04 10:31 47.20134 -2.06095 35000 ft 401 kts 210°
2026-05-04 10:32 47.03425 -2.20936 34993 ft 401 kts 210°
2026-05-04 10:33 46.98639 -2.25170 34991 ft 402 kts 210°
2026-05-04 10:33 46.93854 -2.29389 34995 ft 402 kts 210°
2026-05-04 10:34 46.89069 -2.33607 35006 ft 401 kts 210°
2026-05-04 10:34 46.84294 -2.37807 35008 ft 401 kts 210°
2026-05-04 10:35 46.79554 -2.41971 35009 ft 401 kts 210°
2026-05-04 10:35 46.74731 -2.46190 35022 ft 401 kts 210°
2026-05-04 10:36 46.69971 -2.50351 35012 ft 402 kts 210°
2026-05-04 10:36 46.65179 -2.54533 35008 ft 402 kts 210°
2026-05-04 10:37 46.60377 -2.58719 35006 ft 402 kts 210°
2026-05-04 10:37 46.55572 -2.62897 35007 ft 402 kts 210°
2026-05-04 10:39 46.38785 -2.77417 35012 ft 401 kts 210°
2026-05-04 10:40 46.33987 -2.81545 35027 ft 401 kts 210°
2026-05-04 10:40 46.29174 -2.85677 35007 ft 402 kts 210°
2026-05-04 10:41 46.24603 -2.90333 35007 ft 403 kts 219°
2026-05-04 10:41 46.20324 -2.95577 35002 ft 403 kts 219°
2026-05-04 10:42 46.16045 -3.00808 35001 ft 404 kts 219°
2026-05-04 10:42 46.11746 -3.06036 34997 ft 404 kts 219°
2026-05-04 10:43 46.07451 -3.11245 35008 ft 403 kts 219°
2026-05-04 10:45 45.90276 -3.32009 34994 ft 405 kts 218°
2026-05-04 10:45 45.85961 -3.37200 35003 ft 405 kts 218°
2026-05-04 10:46 45.81641 -3.42385 35003 ft 405 kts 218°
2026-05-04 10:46 45.77323 -3.47549 35004 ft 405 kts 218°
2026-05-04 10:47 45.72994 -3.52720 35005 ft 405 kts 218°
2026-05-04 10:47 45.68655 -3.57893 34999 ft 406 kts 219°
2026-05-04 10:49 45.51198 -3.78619 35005 ft 408 kts 219°
2026-05-04 10:50 45.46851 -3.83738 35009 ft 408 kts 219°
2026-05-04 10:52 45.29314 -4.04332 35009 ft 409 kts 219°
2026-05-04 10:52 45.24924 -4.09451 35010 ft 408 kts 219°
2026-05-04 10:54 45.07494 -4.29699 35016 ft 407 kts 219°
2026-05-04 10:56 44.89877 -4.50010 35011 ft 406 kts 219°
2026-05-04 10:57 44.85488 -4.55028 35012 ft 406 kts 219°
2026-05-04 10:57 44.81102 -4.60040 35021 ft 406 kts 219°
2026-05-04 10:58 44.76708 -4.65055 35014 ft 407 kts 219°
2026-05-04 10:58 44.72310 -4.70064 35012 ft 407 kts 219°
2026-05-04 10:59 44.67908 -4.75077 35011 ft 407 kts 219°
2026-05-04 10:59 44.63505 -4.80080 35015 ft 407 kts 219°
2026-05-04 11:00 44.59098 -4.85077 35012 ft 407 kts 219°
2026-05-04 11:02 44.41130 -5.04275 35026 ft 407 kts 215°
2026-05-04 11:05 44.06563 -5.38673 35043 ft 407 kts 216°
2026-05-04 11:06 44.01948 -5.43233 35039 ft 407 kts 216°
2026-05-04 11:06 43.98102 -5.47020 35038 ft 407 kts 216°